www.hobby-wetter-faasend.de
Wetterdaten: aktuell Sonntag, 27.05.2018 17:45
Datum Zeit Temp. A. Temp. A. min Temp. A. max Feuchte A. Luftdruck Regen Wind Richtung Richtung Sonnenschein Taupunkt Windchill Windben
27.05.2018 17:45 26,7 C 25,9 C 26,7 C 61 % 1015,0 hPa 0,0 l/m 1,0 km/h (0 Bft) O 86 0 min 18,5 C 26,7 C 6,4 km/h (2 Bft)
27.05.2018 17:30 25,9 C 25,9 C 26,9 C 61 % 1015,1 hPa 0,0 l/m 1,7 km/h (1 Bft) O 83 0 min 17,8 C 25,9 C 6,4 km/h (2 Bft)
27.05.2018 17:15 26,1 C 25,2 C 26,1 C 66 % 1015,5 hPa 0,0 l/m 0,7 km/h (0 Bft) S-SW 202 0 min 19,2 C 26,1 C 4,8 km/h (1 Bft)
27.05.2018 17:00 25,2 C 24,9 C 25,2 C 64 % 1015,7 hPa 0,0 l/m 0,9 km/h (0 Bft) S 179 0 min 17,9 C 25,2 C 6,4 km/h (2 Bft)
27.05.2018 16:45 24,9 C 24,7 C 24,9 C 68 % 1016,0 hPa 0,0 l/m 0,7 km/h (0 Bft) S 188 0 min 18,6 C 24,9 C 8,0 km/h (2 Bft)
27.05.2018 16:30 24,7 C 24,6 C 24,8 C 68 % 1015,8 hPa 0,0 l/m 0,2 km/h (0 Bft) S-SW 200 0 min 18,4 C 24,7 C 4,8 km/h (1 Bft)
27.05.2018 16:15 24,7 C 24,6 C 24,8 C 67 % 1015,9 hPa 0,0 l/m 0,0 km/h (0 Bft) S 169 0 min 18,1 C 24,7 C 1,6 km/h (1 Bft)
27.05.2018 16:00 24,6 C 24,6 C 24,7 C 67 % 1016,0 hPa 0,0 l/m 0,0 km/h (0 Bft) SW 215 0 min 18,1 C 24,6 C 1,6 km/h (1 Bft)
27.05.2018 15:45 24,6 C 24,6 C 24,7 C 70 % 1016,3 hPa 0,0 l/m 0,5 km/h (0 Bft) SW 215 0 min 18,8 C 24,6 C 6,4 km/h (2 Bft)
27.05.2018 15:30 24,6 C 24,6 C 24,8 C 70 % 1016,5 hPa 0,0 l/m 0,3 km/h (0 Bft) SW 214 0 min 18,8 C 24,6 C 6,4 km/h (2 Bft)
27.05.2018 15:15 24,7 C 24,4 C 24,8 C 66 % 1016,4 hPa 0,0 l/m 0,0 km/h (0 Bft) N 360 0 min 17,9 C 24,7 C 1,6 km/h (1 Bft)
27.05.2018 15:00 24,4 C 24,4 C 24,7 C 66 % 1016,5 hPa 0,0 l/m 0,2 km/h (0 Bft) N 360 0 min 17,6 C 24,4 C 4,8 km/h (1 Bft)
27.05.2018 14:45 24,6 C 24,4 C 24,6 C 66 % 1016,5 hPa 0,0 l/m 0,6 km/h (0 Bft) NW 306 0 min 17,8 C 24,6 C 4,8 km/h (1 Bft)
27.05.2018 14:30 24,4 C 24,4 C 24,6 C 66 % 1016,7 hPa 0,0 l/m 0,4 km/h (0 Bft) NW 306 0 min 17,6 C 24,4 C 4,8 km/h (1 Bft)
27.05.2018 14:15 24,4 C 24,3 C 24,4 C 68 % 1016,8 hPa 0,0 l/m 0,4 km/h (0 Bft) NW 313 0 min 18,1 C 24,4 C 4,8 km/h (1 Bft)
27.05.2018 14:00 24,3 C 24,3 C 24,6 C 68 % 1016,9 hPa 0,0 l/m 0,8 km/h (0 Bft) W 279 0 min 18,0 C 24,3 C 9,7 km/h (2 Bft)
27.05.2018 13:45 24,4 C 24,1 C 24,4 C 69 % 1016,9 hPa 0,0 l/m 0,6 km/h (0 Bft) NW 311 0 min 18,3 C 24,4 C 6,4 km/h (2 Bft)
27.05.2018 13:30 24,2 C 24,1 C 24,2 C 69 % 1017,0 hPa 0,0 l/m 0,7 km/h (0 Bft) O-NO 57 0 min 18,1 C 24,2 C 6,4 km/h (2 Bft)
27.05.2018 13:15 24,2 C 24,2 C 24,4 C 69 % 1017,1 hPa 0,0 l/m 0,6 km/h (0 Bft) W 269 0 min 18,1 C 24,2 C 9,7 km/h (2 Bft)
27.05.2018 13:00 24,3 C 24,1 C 24,3 C 72 % 1017,1 hPa 0,0 l/m 0,4 km/h (0 Bft) W-NW 302 0 min 18,9 C 24,3 C 4,8 km/h (1 Bft)
27.05.2018 12:45 24,1 C 23,9 C 24,2 C 72 % 1017,3 hPa 0,0 l/m 0,3 km/h (0 Bft) NW 308 0 min 18,7 C 24,1 C 4,8 km/h (1 Bft)
27.05.2018 12:30 23,9 C 23,8 C 24,1 C 71 % 1017,4 hPa 0,0 l/m 0,8 km/h (0 Bft) N-NW 327 0 min 18,3 C 23,9 C 6,4 km/h (2 Bft)
27.05.2018 12:15 23,8 C 23,5 C 24,0 C 70 % 1017,5 hPa 0,0 l/m 0,8 km/h (0 Bft) W-SW 256 0 min 18,0 C 23,8 C 6,4 km/h (2 Bft)
27.05.2018 12:00 23,5 C 23,2 C 23,6 C 72 % 1017,6 hPa 0,0 l/m 0,8 km/h (0 Bft) NW 326 0 min 18,2 C 23,5 C 11,3 km/h (2 Bft)
27.05.2018 11:45 23,3 C 23,0 C 23,3 C 73 % 1017,6 hPa 0,0 l/m 1,3 km/h (1 Bft) S-SW 213 0 min 18,2 C 23,3 C 6,4 km/h (2 Bft)
27.05.2018 11:30 23,1 C 22,9 C 23,4 C 74 % 1017,5 hPa 0,0 l/m 1,0 km/h (0 Bft) S-SW 205 0 min 18,2 C 23,1 C 8,0 km/h (2 Bft)
27.05.2018 11:15 22,9 C 22,7 C 23,1 C 73 % 1017,5 hPa 0,0 l/m 0,0 km/h (0 Bft) W 268 0 min 17,8 C 22,9 C 1,6 km/h (1 Bft)
27.05.2018 11:00 22,8 C 22,1 C 22,8 C 72 % 1017,4 hPa 0,0 l/m 0,0 km/h (0 Bft) W 276 0 min 17,5 C 22,8 C 1,6 km/h (1 Bft)
27.05.2018 10:45 22,1 C 21,7 C 22,1 C 75 % 1017,3 hPa 0,0 l/m 0,0 km/h (0 Bft) N-NW 336 0 min 17,5 C 22,1 C 1,6 km/h (1 Bft)
27.05.2018 10:30 21,7 C 21,5 C 21,7 C 75 % 1017,3 hPa 0,0 l/m 0,0 km/h (0 Bft) N 355 0 min 17,1 C 21,7 C 1,6 km/h (1 Bft)
27.05.2018 10:15 21,5 C 21,4 C 21,6 C 76 % 1017,3 hPa 0,0 l/m 0,0 km/h (0 Bft) N-NW 346 0 min 17,1 C 21,5 C 1,6 km/h (1 Bft)
27.05.2018 10:00 21,4 C 21,4 C 21,7 C 77 % 1017,3 hPa 0,0 l/m 0,0 km/h (0 Bft) W-NW 300 0 min 17,2 C 21,4 C 1,6 km/h (1 Bft)
27.05.2018 09:45 21,4 C 20,7 C 21,4 C 79 % 1017,2 hPa 0,0 l/m 0,0 km/h (0 Bft) W-NW 301 0 min 17,6 C 21,4 C 1,6 km/h (1 Bft)
27.05.2018 09:30 20,7 C 20,7 C 20,8 C 78 % 1017,2 hPa 0,0 l/m 0,0 km/h (0 Bft) W 276 0 min 16,7 C 20,7 C 1,6 km/h (1 Bft)
27.05.2018 09:15 20,7 C 20,7 C 20,8 C 78 % 1017,2 hPa 0,0 l/m 0,0 km/h (0 Bft) W-SW 238 0 min 16,7 C 20,7 C 1,6 km/h (1 Bft)
27.05.2018 09:00 20,7 C 20,4 C 20,7 C 78 % 1017,0 hPa 0,0 l/m 0,0 km/h (0 Bft) W-SW 238 0 min 16,7 C 20,7 C 1,6 km/h (1 Bft)
27.05.2018 08:45 20,5 C 20,3 C 20,5 C 78 % 1016,8 hPa 0,0 l/m 0,0 km/h (0 Bft) SW 235 0 min 16,5 C 20,5 C 1,6 km/h (1 Bft)
27.05.2018 08:30 20,4 C 20,4 C 20,4 C 77 % 1016,8 hPa 0,0 l/m 0,0 km/h (0 Bft) O 87 0 min 16,2 C 20,4 C 1,6 km/h (1 Bft)
27.05.2018 08:15 20,4 C 20,3 C 20,4 C 77 % 1016,6 hPa 0,0 l/m 0,0 km/h (0 Bft) NO 47 0 min 16,2 C 20,4 C 1,6 km/h (1 Bft)
27.05.2018 08:00 20,3 C 20,2 C 20,5 C 76 % 1016,5 hPa 0,0 l/m 0,0 km/h (0 Bft) O 82 0 min 15,9 C 20,3 C 1,6 km/h (1 Bft)
27.05.2018 07:45 20,4 C 19,2 C 20,6 C 78 % 1016,3 hPa 0,0 l/m 0,0 km/h (0 Bft) O 96 0 min 16,4 C 20,4 C 1,6 km/h (1 Bft)
27.05.2018 07:30 19,2 C 17,3 C 19,2 C 85 % 1016,2 hPa 0,0 l/m 0,0 km/h (0 Bft) O-NO 76 0 min 16,6 C 19,2 C 1,6 km/h (1 Bft)
27.05.2018 07:15 17,3 C 16,4 C 17,3 C 94 % 1016,3 hPa 0,0 l/m 0,0 km/h (0 Bft) SO 146 0 min 16,3 C 17,3 C 0,0 km/h (0 Bft)
27.05.2018 07:00 16,4 C 15,8 C 16,4 C 94 % 1016,4 hPa 0,0 l/m 0,0 km/h (0 Bft) S-SO 154 0 min 15,4 C 16,4 C 1,6 km/h (1 Bft)
27.05.2018 06:45 15,8 C 15,4 C 15,8 C 93 % 1016,5 hPa 0,0 l/m 0,0 km/h (0 Bft) SO 139 0 min 14,7 C 15,8 C 0,0 km/h (0 Bft)
27.05.2018 06:30 15,4 C 15,3 C 15,4 C 92 % 1016,5 hPa 0,0 l/m 0,0 km/h (0 Bft) S-SO 148 0 min 14,1 C 15,4 C 0,0 km/h (0 Bft)
27.05.2018 06:15 15,3 C 15,3 C 15,4 C 92 % 1016,4 hPa 0,0 l/m 0,0 km/h (0 Bft) S-SO 151 0 min 14,0 C 15,3 C 0,0 km/h (0 Bft)
27.05.2018 06:00 15,4 C 15,4 C 15,5 C 91 % 1016,3 hPa 0,0 l/m 0,0 km/h (0 Bft) S-SO 151 0 min 13,9 C 15,4 C 0,0 km/h (0 Bft)
27.05.2018 05:45 15,5 C 15,4 C 15,5 C 91 % 1016,2 hPa 0,0 l/m 0,0 km/h (0 Bft) S-SO 156 0 min 14,0 C 15,5 C 0,0 km/h (0 Bft)
27.05.2018 05:30 15,4 C 15,4 C 15,4 C 91 % 1015,8 hPa 0,0 l/m 0,0 km/h (0 Bft) NO 40 0 min 13,9 C 15,4 C 0,0 km/h (0 Bft)
27.05.2018 05:15 15,4 C 15,4 C 15,5 C 90 % 1015,7 hPa 0,0 l/m 0,0 km/h (0 Bft) S 188 0 min 13,8 C 15,4 C 0,0 km/h (0 Bft)
27.05.2018 05:00 15,5 C 15,5 C 15,6 C 90 % 1015,7 hPa 0,0 l/m 0,0 km/h (0 Bft) S-SW 213 0 min 13,9 C 15,5 C 0,0 km/h (0 Bft)
27.05.2018 04:45 15,6 C 15,6 C 15,7 C 89 % 1015,9 hPa 0,0 l/m 0,0 km/h (0 Bft) SO 130 0 min 13,8 C 15,6 C 0,0 km/h (0 Bft)
27.05.2018 04:30 15,7 C 15,7 C 15,8 C 89 % 1016,2 hPa 0,0 l/m 0,0 km/h (0 Bft) SO 130 0 min 13,9 C 15,7 C 0,0 km/h (0 Bft)
27.05.2018 04:15 15,8 C 15,8 C 15,9 C 88 % 1016,4 hPa 0,0 l/m 0,0 km/h (0 Bft) SO 130 0 min 13,8 C 15,8 C 0,0 km/h (0 Bft)
27.05.2018 04:00 15,9 C 15,9 C 16,2 C 88 % 1016,5 hPa 0,0 l/m 0,0 km/h (0 Bft) SO 130 0 min 13,9 C 15,9 C 0,0 km/h (0 Bft)
27.05.2018 03:45 16,2 C 16,2 C 16,4 C 86 % 1016,7 hPa 0,0 l/m 0,0 km/h (0 Bft) SO 130 0 min 13,9 C 16,2 C 0,0 km/h (0 Bft)
27.05.2018 03:30 16,4 C 16,4 C 16,6 C 86 % 1016,8 hPa 0,0 l/m 0,0 km/h (0 Bft) SO 130 0 min 14,1 C 16,4 C 0,0 km/h (0 Bft)
27.05.2018 03:15 16,6 C 16,6 C 16,8 C 86 % 1016,8 hPa 0,0 l/m 0,0 km/h (0 Bft) SO 130 0 min 14,2 C 16,6 C 0,0 km/h (0 Bft)
27.05.2018 03:00 16,8 C 16,8 C 17,0 C 86 % 1016,8 hPa 0,0 l/m 0,0 km/h (0 Bft) SO 130 0 min 14,4 C 16,8 C 0,0 km/h (0 Bft)
27.05.2018 02:45 17,0 C 17,0 C 17,3 C 85 % 1017,0 hPa 0,0 l/m 0,0 km/h (0 Bft) SO 130 0 min 14,5 C 17,0 C 0,0 km/h (0 Bft)
27.05.2018 02:30 17,3 C 17,3 C 17,5 C 84 % 1017,1 hPa 0,0 l/m 0,0 km/h (0 Bft) SO 130 0 min 14,6 C 17,3 C 0,0 km/h (0 Bft)
27.05.2018 02:15 17,5 C 17,5 C 17,8 C 84 % 1017,1 hPa 0,0 l/m 0,0 km/h (0 Bft) SO 130 0 min 14,8 C 17,5 C 0,0 km/h (0 Bft)
27.05.2018 02:00 17,8 C 17,8 C 18,2 C 82 % 1017,3 hPa 0,0 l/m 0,0 km/h (0 Bft) SO 130 0 min 14,7 C 17,8 C 0,0 km/h (0 Bft)
27.05.2018 01:45 18,2 C 18,2 C 18,6 C 81 % 1017,1 hPa 0,0 l/m 0,0 km/h (0 Bft) SO 130 0 min 14,9 C 18,2 C 0,0 km/h (0 Bft)
27.05.2018 01:30 18,6 C 18,6 C 19,0 C 81 % 1017,2 hPa 0,0 l/m 0,0 km/h (0 Bft) SO 130 0 min 15,3 C 18,6 C 0,0 km/h (0 Bft)
27.05.2018 01:15 19,0 C 19,0 C 19,4 C 79 % 1017,4 hPa 0,0 l/m 0,0 km/h (0 Bft) SO 130 0 min 15,3 C 19,0 C 0,0 km/h (0 Bft)
27.05.2018 01:00 19,4 C 19,4 C 19,8 C 77 % 1017,4 hPa 0,0 l/m 0,0 km/h (0 Bft) SO 130 0 min 15,3 C 19,4 C 0,0 km/h (0 Bft)
27.05.2018 00:45 19,8 C 19,8 C 20,2 C 78 % 1017,6 hPa 0,0 l/m 0,0 km/h (0 Bft) SO 130 0 min 15,8 C 19,8 C 1,6 km/h (1 Bft)
27.05.2018 00:30 20,2 C 20,2 C 20,8 C 76 % 1017,4 hPa 0,0 l/m 0,2 km/h (0 Bft) SO 130 0 min 15,8 C 20,2 C 3,2 km/h (1 Bft)
27.05.2018 00:15 20,8 C 20,8 C 21,5 C 75 % 1017,5 hPa 0,0 l/m 0,0 km/h (0 Bft) SO 130 0 min 16,2 C 20,8 C 1,6 km/h (1 Bft)
27.05.2018 00:00 21,5 C 21,5 C 22,1 C 74 % 1017,7 hPa 0,0 l/m 0,0 km/h (0 Bft) SO 130 0 min 16,7 C 21,5 C 1,6 km/h (1 Bft)
26.05.2018 23:45 22,1 C 22,1 C 22,6 C 70 % 1017,6 hPa 0,0 l/m 0,0 km/h (0 Bft) SO 130 0 min 16,4 C 22,1 C 0,0 km/h (0 Bft)
26.05.2018 23:30 22,5 C 22,5 C 22,8 C 70 % 1017,6 hPa 0,0 l/m 0,0 km/h (0 Bft) SO 130 0 min 16,7 C 22,5 C 1,6 km/h (1 Bft)
26.05.2018 23:16 22,8 C 22,8 C 22,9 C 70 % 1017,7 hPa 0,0 l/m 0,0 km/h (0 Bft) SO 130 0 min 17,0 C 22,8 C 1,6 km/h (1 Bft)
26.05.2018 23:00 22,9 C 22,9 C 23,0 C 68 % 1017,8 hPa 0,0 l/m 0,0 km/h (0 Bft) SO 130 0 min 16,7 C 22,9 C 1,6 km/h (1 Bft)
26.05.2018 22:45 22,9 C 22,9 C 22,9 C 68 % 1017,9 hPa 0,0 l/m 0,2 km/h (0 Bft) SO 130 0 min 16,7 C 22,9 C 4,8 km/h (1 Bft)
26.05.2018 22:30 22,9 C 22,8 C 22,9 C 68 % 1017,8 hPa 0,0 l/m 0,2 km/h (0 Bft) O 95 0 min 16,7 C 22,9 C 4,8 km/h (1 Bft)
26.05.2018 22:15 22,8 C 22,8 C 22,8 C 69 % 1017,9 hPa 0,0 l/m 0,9 km/h (0 Bft) O 90 0 min 16,8 C 22,8 C 11,3 km/h (2 Bft)
26.05.2018 22:00 22,8 C 22,8 C 22,8 C 69 % 1017,9 hPa 0,0 l/m 0,4 km/h (0 Bft) SO 126 0 min 16,8 C 22,8 C 4,8 km/h (1 Bft)
26.05.2018 21:45 22,8 C 22,8 C 23,1 C 69 % 1017,6 hPa 0,0 l/m 0,6 km/h (0 Bft) O 88 0 min 16,8 C 22,8 C 6,4 km/h (2 Bft)
26.05.2018 21:30 23,1 C 23,1 C 23,8 C 69 % 1017,4 hPa 0,0 l/m 0,2 km/h (0 Bft) NO 55 0 min 17,1 C 23,1 C 4,8 km/h (1 Bft)
26.05.2018 21:15 23,8 C 23,8 C 24,6 C 69 % 1017,4 hPa 0,0 l/m 0,0 km/h (0 Bft) O 98 0 min 17,8 C 23,8 C 1,6 km/h (1 Bft)
26.05.2018 21:00 24,6 C 24,6 C 25,4 C 67 % 1017,3 hPa 0,0 l/m 0,0 km/h (0 Bft) O 98 0 min 18,1 C 24,6 C 1,6 km/h (1 Bft)
26.05.2018 20:45 25,4 C 25,4 C 26,2 C 64 % 1017,0 hPa 0,0 l/m 0,0 km/h (0 Bft) O 98 0 min 18,1 C 25,4 C 0,0 km/h (0 Bft)
26.05.2018 20:30 26,2 C 26,2 C 27,1 C 62 % 1017,1 hPa 0,0 l/m 0,0 km/h (0 Bft) O 98 0 min 18,3 C 26,2 C 0,0 km/h (0 Bft)
26.05.2018 20:15 27,1 C 27,1 C 27,8 C 60 % 1017,2 hPa 0,0 l/m 0,0 km/h (0 Bft) O 98 0 min 18,6 C 27,1 C 0,0 km/h (0 Bft)
26.05.2018 20:00 27,8 C 27,8 C 28,2 C 57 % 1017,2 hPa 0,0 l/m 0,0 km/h (0 Bft) SO 146 0 min 18,5 C 27,8 C 0,0 km/h (0 Bft)
26.05.2018 19:45 28,2 C 28,0 C 28,3 C 55 % 1017,2 hPa 0,0 l/m 0,0 km/h (0 Bft) SO 146 0 min 18,3 C 28,2 C 1,6 km/h (1 Bft)
26.05.2018 19:30 28,0 C 27,8 C 28,0 C 54 % 1017,2 hPa 0,0 l/m 0,0 km/h (0 Bft) S-SW 197 0 min 17,8 C 28,0 C 1,6 km/h (1 Bft)
26.05.2018 19:16 27,8 C 27,8 C 28,1 C 52 % 1017,2 hPa 0,0 l/m 0,0 km/h (0 Bft) S-SW 196 0 min 17,0 C 27,8 C 3,2 km/h (1 Bft)
26.05.2018 19:00 28,1 C 28,1 C 28,3 C 49 % 1017,2 hPa 0,0 l/m 0,0 km/h (0 Bft) S 184 0 min 16,4 C 28,1 C 0,0 km/h (0 Bft)
26.05.2018 18:45 28,3 C 28,3 C 28,9 C 46 % 1017,3 hPa 0,0 l/m 0,2 km/h (0 Bft) S 184 0 min 15,6 C 28,3 C 4,8 km/h (1 Bft)
26.05.2018 18:30 28,8 C 28,7 C 28,8 C 44 % 1017,2 hPa 0,0 l/m 0,8 km/h (0 Bft) SW 223 0 min 15,3 C 28,8 C 8,0 km/h (2 Bft)
26.05.2018 18:15 28,8 C 28,7 C 29,0 C 44 % 1017,2 hPa 0,0 l/m 0,6 km/h (0 Bft) SO 132 0 min 15,3 C 28,8 C 4,8 km/h (1 Bft)
26.05.2018 18:00 29,0 C 28,4 C 29,0 C 44 % 1017,3 hPa 0,0 l/m 0,1 km/h (0 Bft) S 181 0 min 15,5 C 29,0 C 3,2 km/h (1 Bft)
_ Min-Zeit 06:15 06:15 05:30 18:00 17:45 - 19:00 - - - 05:15 06:15 19:00
Minimum _ 15,3 C 15,3 C 15,4 C 44 % 1015,0 hPa - 0,0 km/h (0 Bft) - - - 13,8 C 15,3 C 0,0 km/h (0 Bft)
_ Max-Zeit 18:00 18:15 18:00 07:00 22:00 18:00 17:30 - - 18:00 17:15 18:00 22:15
Maximum _ 29,0 C 28,7 C 29,0 C 94 % 1017,9 hPa 0,0 l/m 1,7 km/h
O (1 Bft)
- - 0 min 19,2 C 29,0 C 11,3 km/h
O-NO (2 Bft)
Durchschnitt _ 22,3 C 22,2 C 22,5 C 71 % 1016,9 hPa #0,0 l/m 0,2 km/h (0 Bft) O - #0 min. 16,5 C 22,3 C 2,8 km/h (1 Bft)